Regional Weather Roundup
Issued by NWS Sioux Falls, SD

Home | Current Version | Previous Version | Text Only | Print | Product List | Glossary On
Versions: 1 2 3 4 5 6 7 8 9 10 11 12 13 14 15 16 17 18 19 20 21 22 23 24 25 26 27 28 29 30 31 32 33 34 35 36 37 38 39 40 41 42 43 44 45 46 47 48 49 50
000
ASUS43 KFSD 040710
RWRFSD

WEATHER ROUNDUP FOR SE SOUTH DAKOTA/SW MINNESOTA/NW IOWA
NATIONAL WEATHER SERVICE SIOUX FALLS SD
200 AM CDT TUE AUG 04 2015

NOTE: "FAIR" INDICATES FEW OR NO CLOUDS BELOW 12,000 FEET WITH NO
SIGNIFICANT WEATHER AND OR OBSTRUCTIONS TO VISIBILITY.


SDZ038>040-050-052>070-040800-
SOUTHEAST SOUTH DAKOTA

CITY           SKY/WX    TMP DP  RH WIND       PRES   REMARKS
BROOKINGS      CLEAR     55  52  88 CALM      30.00F
CHAMBERLAIN    PTCLDY    64  57  77 SE6       29.96S
HURON          CLEAR     63  56  78 SE7       29.95F
MADISON        FAIR      57  57 100 E5        29.99F
MITCHELL       CLEAR     62  58  86 SE5       29.96F
SIOUX FALLS    CLEAR     61  59  93 CALM      29.98F
WINNER         LGT RAIN  69  62  78 SE8       29.95F
YANKTON        PTCLDY    64  63  94 E7        29.94F
$$

MNZ071-072-080-081-089-090-097-098-040800-
SOUTHWEST MINNESOTA

CITY           SKY/WX    TMP DP  RH WIND       PRES   REMARKS
FAIRMONT       CLEAR     57  48  72 CALM      29.97F
JACKSON        CLEAR     55  54  94 CALM      30.00S
LUVERNE        CLEAR     59  55  88 CALM      30.00S
MARSHALL       CLEAR     55  48  76 CALM      29.99S
MONTEVIDEO     CLEAR     54  45  71 CALM      29.99S
PIPESTONE      CLEAR     61  54  77 CALM      29.99F
REDWOOD FALLS  CLEAR     59  53  80 CALM      29.97F
TRACY          CLEAR     61  54  77 CALM      29.99S
WINDOM         CLEAR     54  52  94 CALM      29.99F
WORTHINGTON    CLEAR     55  52  88 CALM      30.00S
$$

IAZ001>003-012>014-020>022-031-032-NEZ013-014-SDZ071-040800-
NORTHWEST IOWA

CITY           SKY/WX    TMP DP  RH WIND       PRES   REMARKS
CHEROKEE       CLEAR     61  61 100 CALM      29.99S
DENISON        CLOUDY    66  64  94 CALM      29.96F
ESTHERVILLE    CLEAR     56  54  93 W7        29.99R
LE MARS          N/A    N/A N/A N/A CALM      29.98F
ORANGE CITY    CLEAR     64  61  88 CALM      29.98F
SHELDON        CLEAR     57  57 100 SE3       29.98F
SIOUX CITY     CLOUDY    68  62  81 E5        29.97F
SPENCER        PTCLDY    60  55  83 N6        29.99F
STORM LAKE     CLEAR     63  57  82 SW6       30.00S
$$

ABBREVIATIONS USED IN REMARKS
   TC - TEMPERATURE IN CELSIUS
  WCI - WIND CHILL INDEX
   HX - HEAT INDEX
  VSB - VISIBILITY



USA.gov is the U.S. government's official web portal to all federal, state and local government web resources and services.